STARLINK-34765 (66506 NORAD) Tracking and Keplerian Element Data

This shows tracking and keplerian element data for the satellite.

Feedback or suggestion? Click here.




ElementValue
Catalog66506
NameSTARLINK-34765
Epoch Orbit600
Epoch Day353.00002315
Epoch Year2025
RAAN88.8267
Inclination43.0011
Eccentricity0.0001201
Argument of Perigee265.8273
Mean Anonmoly333.3008
Mean Motion15.40698712
Decay Rate-0.00011788
L11 66506U 25263X 25353.00002315 -.00011788 00000+0 -27537-3 0 9993
L22 66506 43.0011 88.8267 0001201 265.8273 333.3008 15.40698712 6009



Live tracking and technical data element details for STARLINK-34765 (NORAD 66506). STARLINK-34765 can be tracked NOW for your location showing map with azimuth and elevation plus other details from your city location.







IsCatalogInMostPopularTable: catalog: 66506, numindb: 10
Update: records affected: 1



GetName: 66506 STARLINK-34765

Hit Count: updated at: Mon, 20 Apr 2026 10:15:40 GMT